Starlink 32224

operational
NORAD ID: 60941 Int'l Des: 2024-155 Owner: SPXS Country: US Constellation: starlink
LEOCIRCULAR

Über Starlink 32224

Beschreibung wird geladen...

Live-Position

3D-Globus wird geladen...

Nächste Überflüge

Höhenverlauf

Altitude vs Time

uPlot chart will show altitude changes over time

Zweizeiliger Elementsatz

1 60941U 24155T 26037.10019772 .00004936 00000-0 17876-3 0 9996
2 60941 53.1558 276.4538 0001191 71.0756 289.0373 15.30184710 81519
Epoch: 6. Feb. 2026 • Age: 18 hours

Aktueller Status

Höhe 491.5 km
Geschwindigkeit 7.62 km/s
Subsatellitenpunkt -45.60°S, 54.9°E
Startdatum 31. Aug. 2024
Alter 1.4 years
Typ internet

Technische Details

Klassifizierung Payload
Masse 730.00 kg
Trockenmasse 700.00 kg
Gesamtmasse 730.00 kg
Länge 0.30 m
Durchmesser 4.10 m
Spannweite 29.00 m
Form Box + pan
Hersteller SPXS
Bus-Typ Starlink V2M
Phasenstatus In Orbit
Besitzer/Staat SPXS/US

Große Konstellationen

Loading constellations...